Flag for U.S.A. Weather past 2 weeks in Fort Bragg, California, U.S.A.

Now
98 °F

Sunny.


Feels Like: 93 °F
Forecast: 56 / 69 °F
Wind: 8 mph from North

Location: Ukiah Municipal

Current Time: Jul 31, 2014 at 7:31:07 PM

Latest Report: Jul 31, 2014 at 6:56 PM


Visibility: 10 mi

Pressure: 29.84 "Hg

Humidity: 6%

Dew point: 22 °F

Location of Fort BraggLocation

Historic Weather in Fort Bragg — Graph

°F

Fort Bragg temperature yesterday

Maximum temperature yesterday: 104 °F (at 2:56 PM)
Minimum temperature yesterday: 64 °F (at 5:56 AM)
Average temperature yesterday: 83 °F

Past Weeks' High & Low Weather Summary

 TemperatureHumidityPressure
High106 °F (Jul 31, 1:56 PM)87% (Jul 22, 3:56 AM)30.13 "Hg (Jul 22, 3:56 AM)
Low54 °F (Jul 24, 5:56 AM)4% (Jul 31, 2:56 PM)29.80 "Hg (Jul 25, 3:56 PM)
Average76 °F48%29.93 "Hg
* Reported Jul 16 5:56 PM — Jul 31 5:56 PM, Fort Bragg, Weather by CustomWeather, © 2014

Note: Actual official high and low records may vary slightly from our data, if they occured in-between our weather recording intervals... More about our weather records

Advertising

Fort Bragg weather history for previous 24 hours

 ConditionsComfort  
Time TempWeatherWind HumidityBarometerVisibility
5:56 PM
Jul 31
101 °FSunny.7 mph5%29.84 "Hg10 mi
4:56 PM103 °FSunny.14 mph5%29.84 "Hg10 mi
3:56 PM103 °FSunny.14 mph5%29.85 "Hg10 mi
2:56 PM105 °FSunny.12 mph4%29.85 "Hg10 mi
1:56 PM106 °FSunny.10 mph5%29.86 "Hg10 mi
12:56 PM100 °FSunny.6 mph12%29.88 "Hg10 mi
11:56 AM94 °FSunny.No wind15%29.90 "Hg10 mi
10:56 AM87 °FSunny.5 mph22%29.91 "Hg10 mi
9:56 AM78 °FSunny.3 mph30%29.93 "Hg10 mi
8:56 AM72 °FSunny.No wind37%29.95 "Hg10 mi
7:56 AM65 °FSunny.No wind47%29.94 "Hg10 mi
6:56 AM59 °FClear.No wind62%29.93 "Hg10 mi
5:56 AM59 °FClear.No wind60%29.92 "Hg10 mi
4:56 AM61 °FClear.No wind56%29.91 "Hg10 mi
3:56 AM63 °FClear.No wind54%29.91 "Hg10 mi
2:56 AM64 °FClear.No wind49%29.92 "Hg10 mi
1:56 AM67 °FClear.No wind45%29.92 "Hg10 mi
12:56 AM69 °FClear.No wind44%29.92 "Hg10 mi
11:56 PM
Jul 30
72 °FClear.No wind43%29.92 "Hg10 mi
10:56 PM73 °FClear.3 mph40%29.91 "Hg10 mi
9:56 PM82 °FClear.No wind18%29.91 "Hg10 mi
8:56 PM85 °FSunny.3 mph19%29.90 "Hg10 mi
7:56 PM93 °FSunny.3 mph9%29.89 "Hg10 mi
Weather by CustomWeather, © 2014

See weather overviewHow to use our weather pages